Content
SEND FEEDBACK

Daily
Averages
Monthly
Summary
United States of America

CLARK, PENNSYLVANIA


Home > North America > United States > Pennsylvania
Elevation: 1035 feet     Latitude: 41 24N     Longitude: 080 23W

WEATHER
 
SELECT A DAY
Number of Records: 205,261;   Date Range: 1/1/95 - 9/3/14
 
SHARE

PRINT THIS DATA

[ ← Previous Day ]
WEATHER ALMANAC - FEBRUARY 13, 2013
[ Next Day → ]
[ °C ]   °F
Weather ElementAverageHighLow
Temperature28.2 °F35.1 °F (12:51 pm)23 °F (2:38 am)
Dewpoint22.4 °F25 °F (9:51 am)19.4 °F (2:38 am)
Humidity79.3 %88 % (2:51 am)64 % (12:51 pm)
Barometer29.82 in29.92 in (1:51 am)29.73 in (2:51 pm)
Wind Speed4.9 mph10.4 mph (4:51 pm)
Weather ElementAverage
Visibility7.9 mi
Wind DirectionSSE (148.8 °)

Weather ElementTotal
Precipitation---
Heating Degree Days36 (Base 65)
Averaged from 24 records on February 13, 2013
WEATHER CONDITIONS BREAKOUT
WIND DIRECTION BREAKOUT
WEATHER BY HOUR - FEBRUARY 13, 2013
[ °C ]   °F
Local TimeTemperatureDewpointHumidityBarometerVisibilityWind DirectionWind SpeedGust SpeedPrecipitationEventsConditions
1:51 AM24.1 °F19.9 °F84 %29.92 in7.0 miNE (40°)8.1 mphPartly Cloudy
2:38 AM23.0 °F19.4 °F86 %29.87 in7.0 miENE (70°)5.8 mphMostly Cloudy
2:51 AM24.1 °F21.0 °F88 %29.91 in7.0 miENE (60°)4.6 mphMostly Cloudy
3:51 AM26.1 °F21.9 °F84 %29.88 in9.0 miEast (100°)4.6 mphOvercast
4:51 AM26.1 °F21.9 °F84 %29.89 in8.0 miSE (130°)5.8 mphOvercast
5:51 AM26.1 °F23.0 °F88 %29.87 in8.0 miCalmOvercast
6:51 AM24.1 °F21.0 °F88 %29.86 in6.0 miEast (90°)3.5 mphMostly Cloudy
7:51 AM27.0 °F23.0 °F85 %29.85 in5.0 miCalmOvercast
8:51 AM28.0 °F23.0 °F81 %29.83 in4.0 miNNE (20°)3.5 mphOvercast
9:51 AM30.9 °F25.0 °F79 %29.80 in6.0 miNNE (20°)8.1 mphOvercast
10:51 AM30.9 °F23.0 °F72 %29.83 in10.0 miNE (40°)4.6 mphOvercast
11:51 AM32.0 °F24.1 °F73 %29.81 in10.0 miCalmOvercast
12:51 PM35.1 °F24.1 °F64 %29.77 in10.0 miCalmOvercast
1:51 PM35.1 °F24.1 °F64 %29.74 in10.0 miCalmOvercast
2:51 PM34.0 °F24.1 °F67 %29.73 in10.0 miNNW (330°)8.1 mphOvercast
3:51 PM34.0 °F24.1 °F67 %29.74 in10.0 miNNW (330°)9.2 mphOvercast
4:51 PM33.1 °F24.1 °F70 %29.74 in10.0 miNW (320°)10.4 mphOvercast
5:51 PM30.9 °F24.1 °F76 %29.75 in9.0 miNNW (340°)8.1 mphMostly Cloudy
6:51 PM28.0 °F23.0 °F81 %29.78 in9.0 miNW (320°)8.1 mphMostly Cloudy
7:51 PM26.1 °F21.0 °F81 %29.80 in8.0 miNW (320°)8.1 mphPartly Cloudy
8:51 PM25.0 °F21.0 °F85 %29.83 in8.0 miWNW (300°)4.6 mphClear
9:51 PM24.1 °F21.0 °F88 %29.84 in7.0 miWest (260°)3.5 mphClear
10:51 PM24.1 °F19.9 °F84 %29.85 in6.0 miWest (260°)4.6 mphClear
11:51 PM24.1 °F19.9 °F84 %29.86 in6.0 miSW (220°)3.5 mphClear
Hourly data recorded from KYNG, located miles away from Clark, Pennsylvania







STORIES FROM OUR PARTNERS